| time (UTC) | temp F | wind direction | speed MPH | gust MPH | rain 1hr in | rain 24hr in | rain mn in | humidity % | barometer mb |
| 20260508144533 | 69 | 0.0 | 0.0 | 0.00 | 0.00 | 0.00 | 41 | 1011.6 | |
| 20260508143033 | 67 | 0.0 | 0.0 | 0.00 | 0.00 | 0.00 | 47 | 1011.6 | |
| 20260508141542 | 64 | 0.0 | 0.0 | 0.00 | 0.00 | 0.00 | 52 | 1011.6 | |
| 20260508140022 | 62 | 0.0 | 0.0 | 0.00 | 0.00 | 0.00 | 54 | 1011.6 | |
| 20260508134520 | 60 | 0.0 | 0.0 | 0.00 | 0.00 | 0.00 | 56 | 1011.6 | |
| 20260508133020 | 58 | 0.0 | 0.0 | 0.00 | 0.00 | 0.00 | 59 | 1011.4 | |
| 20260508131514 | 55 | 0.0 | 0.0 | 0.00 | 0.00 | 0.00 | 61 | 1011.3 | |
| 20260508130011 | 54 | 0.0 | 0.0 | 0.00 | 0.00 | 0.00 | 61 | 1011.0 | |
| 20260508124509 | 54 | 0.0 | 0.0 | 0.00 | 0.00 | 0.00 | 58 | 1010.8 | |
| 20260508123007 | 53 | 0.0 | 0.0 | 0.00 | 0.00 | 0.00 | 63 | 1010.6 | |
| 20260508121504 | 54 | 0.0 | 0.0 | 0.00 | 0.00 | 0.00 | 61 | 1010.5 | |
| 20260508120002 | 55 | 0.0 | 0.0 | 0.00 | 0.00 | 0.00 | 56 | 1010.4 | |
| 20260508114600 | 55 | 0.0 | 0.0 | 0.00 | 0.00 | 0.00 | 56 | 1010.4 | |
| 20260508113101 | 55 | 0.0 | 0.0 | 0.00 | 0.00 | 0.00 | 59 | 1010.3 | |
| 20260508111601 | 55 | 0.0 | 0.0 | 0.00 | 0.00 | 0.00 | 60 | 1010.2 | |
| 20260508104554 | 56 | 0.0 | 0.0 | 0.00 | 0.00 | 0.00 | 55 | 1010.1 | |
| 20260508103120 | 56 | 0.0 | 0.0 | 0.00 | 0.00 | 0.00 | 57 | 1010.0 | |
| 20260508101604 | 57 | 0.0 | 0.0 | 0.00 | 0.00 | 0.00 | 54 | 1010.0 | |
| 20260508100050 | 57 | 0.0 | 0.0 | 0.00 | 0.00 | 0.00 | 54 | 1010.0 | |
| 20260508094604 | 56 | 0.0 | 0.0 | 0.00 | 0.00 | 0.00 | 59 | 1009.9 | |
| 20260508093048 | 56 | 0.0 | 0.0 | 0.00 | 0.00 | 0.00 | 57 | 1010.0 | |
| 20260508091543 | 58 | 0.0 | 0.0 | 0.00 | 0.00 | 0.00 | 54 | 1010.0 | |
| 20260508090041 | 59 | 0.0 | 0.0 | 0.00 | 0.00 | 0.00 | 52 | 1010.0 | |
| 20260508084637 | 60 | 0.0 | 0.0 | 0.00 | 0.00 | 0.00 | 49 | 1010.0 | |
| 20260508083036 | 60 | 0.0 | 0.0 | 0.00 | 0.00 | 0.00 | 47 | 1010.3 | |
| 20260508081531 | 61 | 0.0 | 0.0 | 0.00 | 0.00 | 0.00 | 47 | 1010.4 | |
| 20260508080026 | 61 | 0.0 | 0.0 | 0.00 | 0.00 | 0.00 | 46 | 1010.5 | |
| 20260508074523 | 63 | 0.0 | 0.0 | 0.00 | 0.00 | 0.00 | 42 | 1010.6 | |
| 20260508073028 | 63 | 0.0 | 0.0 | 0.00 | 0.00 | 0.00 | 42 | 1010.7 | |
| 20260508071527 | 63 | 0.0 | 0.0 | 0.00 | 0.00 | 0.00 | 41 | 1010.8 | |
| 20260508070017 | 64 | 0.0 | 0.0 | 0.00 | 0.00 | 0.00 | 39 | 1010.8 | |
| 20260508064530 | 66 | 0.0 | 0.0 | 0.00 | 0.00 | 0.00 | 37 | 1010.8 | |
| 20260508063020 | 67 | 0.0 | 0.0 | 0.00 | 0.00 | 0.00 | 34 | 1011.1 | |
| 20260508061518 | 68 | 0.0 | 0.0 | 0.00 | 0.00 | 0.00 | 33 | 1010.9 | |
| 20260508060017 | 67 | 0.0 | 0.0 | 0.00 | 0.00 | 0.00 | 34 | 1010.9 | |
| 20260508054516 | 68 | 0.0 | 0.0 | 0.00 | 0.00 | 0.00 | 34 | 1010.8 | |
| 20260508053020 | 70 | 0.0 | 0.0 | 0.00 | 0.00 | 0.00 | 31 | 1010.8 | |
| 20260508051514 | 71 | 0.0 | 0.0 | 0.00 | 0.00 | 0.00 | 29 | 1010.8 | |
| 20260508050018 | 69 | 0.0 | 0.0 | 0.00 | 0.00 | 0.00 | 32 | 1010.7 | |
| 20260508044510 | 71 | 0.0 | 0.0 | 0.00 | 0.00 | 0.00 | 28 | 1010.5 | |
| 20260508043009 | 71 | 0.0 | 0.0 | 0.00 | 0.00 | 0.00 | 28 | 1010.5 | |
| 20260508041509 | 72 | 0.0 | 0.0 | 0.00 | 0.00 | 0.00 | 27 | 1010.3 | |
| 20260508040017 | 73 | 0.0 | 0.0 | 0.00 | 0.00 | 0.00 | 27 | 1010.2 | |
| 20260508034508 | 74 | 0.0 | 0.0 | 0.00 | 0.00 | 0.00 | 25 | 1009.7 | |
| 20260508033007 | 75 | 0.0 | 0.0 | 0.00 | 0.00 | 0.00 | 25 | 1009.6 | |
| 20260508031506 | 76 | 0.0 | 0.0 | 0.00 | 0.00 | 0.00 | 23 | 1009.3 | |
| 20260508030005 | 78 | 0.0 | 0.0 | 0.00 | 0.00 | 0.00 | 21 | 1008.7 | |
| 20260508024506 | 79 | 0.0 | 0.0 | 0.00 | 0.00 | 0.00 | 21 | 1008.4 | |
| 20260508023007 | 80 | 0.0 | 0.0 | 0.00 | 0.00 | 0.00 | 19 | 1008.0 | |
| 20260508021504 | 82 | 0.0 | 0.0 | 0.00 | 0.00 | 0.00 | 17 | 1007.8 | |
| 20260508020003 | 84 | 0.0 | 0.0 | 0.00 | 0.00 | 0.00 | 13 | 1007.2 | |
| 20260508014503 | 85 | 0.0 | 0.0 | 0.00 | 0.00 | 0.00 | 13 | 1006.9 | |
| 20260508013002 | 86 | 0.0 | 0.0 | 0.00 | 0.00 | 0.00 | 13 | 1006.7 | |
| 20260508011502 | 87 | 0.0 | 0.0 | 0.00 | 0.00 | 0.00 | 13 | 1006.7 | |
| 20260508010100 | 88 | 0.0 | 0.0 | 0.00 | 0.00 | 0.00 | 12 | 1006.7 | |
| 20260508010002 | 88 | 0.0 | 0.0 | 0.00 | 0.00 | 0.00 | 12 | 1006.7 | |
| 20260508004602 | 88 | 0.0 | 0.0 | 0.00 | 0.00 | 0.00 | 12 | 1006.5 | |
| 20260508003108 | 89 | 0.0 | 0.0 | 0.00 | 0.00 | 0.00 | 12 | 1006.5 | |
| 20260508001600 | 88 | 0.0 | 0.0 | 0.00 | 0.00 | 0.00 | 11 | 1006.3 | |
| 20260508000100 | 86 | 0.0 | 0.0 | 0.00 | 0.00 | 0.00 | 13 | 1006.4 | |
| 20260507234556 | 88 | 0.0 | 0.0 | 0.00 | 0.00 | 0.00 | 12 | 1006.4 | |
| 20260507233055 | 88 | 0.0 | 0.0 | 0.00 | 0.00 | 0.00 | 11 | 1006.5 | |
| 20260507231554 | 88 | 0.0 | 0.0 | 0.00 | 0.00 | 0.00 | 11 | 1006.7 | |
| 20260507230052 | 91 | 0.0 | 0.0 | 0.00 | 0.00 | 0.00 | 11 | 1006.6 | |
| 20260507224608 | 90 | 0.0 | 0.0 | 0.00 | 0.00 | 0.00 | 12 | 1006.7 | |
| 20260507223054 | 89 | 0.0 | 0.0 | 0.00 | 0.00 | 0.00 | 11 | 1006.8 | |
| 20260507221545 | 90 | 0.0 | 0.0 | 0.00 | 0.00 | 0.00 | 11 | 1007.0 | |
| 20260507220042 | 91 | 0.0 | 0.0 | 0.00 | 0.00 | 0.00 | 11 | 1007.2 | |
| 20260507214539 | 90 | 0.0 | 0.0 | 0.00 | 0.00 | 0.00 | 12 | 1007.5 | |
| 20260507213040 | 86 | 0.0 | 0.0 | 0.00 | 0.00 | 0.00 | 12 | 1007.8 | |
| 20260507211541 | 87 | 0.0 | 0.0 | 0.00 | 0.00 | 0.00 | 12 | 1007.9 | |
| 20260507210035 | 86 | 0.0 | 0.0 | 0.00 | 0.00 | 0.00 | 13 | 1008.3 | |
| 20260507204530 | 87 | 0.0 | 0.0 | 0.00 | 0.00 | 0.00 | 12 | 1008.3 | |
| 20260507203026 | 88 | 0.0 | 0.0 | 0.00 | 0.00 | 0.00 | 13 | 1008.4 | |
| 20260507201527 | 89 | 0.0 | 0.0 | 0.00 | 0.00 | 0.00 | 12 | 1008.6 | |
| 20260507200021 | 87 | 0.0 | 0.0 | 0.00 | 0.00 | 0.00 | 13 | 1008.9 | |
| 20260507194519 | 87 | 0.0 | 0.0 | 0.00 | 0.00 | 0.00 | 13 | 1009.0 | |
| 20260507193018 | 86 | 0.0 | 0.0 | 0.00 | 0.00 | 0.00 | 14 | 1009.2 | |
| 20260507191518 | 88 | 0.0 | 0.0 | 0.00 | 0.00 | 0.00 | 14 | 1009.3 | |
| 20260507190013 | 87 | 0.0 | 0.0 | 0.00 | 0.00 | 0.00 | 13 | 1009.5 | |
| 20260507184513 | 87 | 0.0 | 0.0 | 0.00 | 0.00 | 0.00 | 15 | 1009.7 | |
| 20260507183006 | 85 | 0.0 | 0.0 | 0.00 | 0.00 | 0.00 | 17 | 1010.0 | |
| 20260507181503 | 84 | 0.0 | 0.0 | 0.00 | 0.00 | 0.00 | 17 | 1010.4 | |
| 20260507180100 | 84 | 0.0 | 0.0 | 0.00 | 0.00 | 0.00 | 18 | 1010.7 | |
| 20260507174555 | 81 | 0.0 | 0.0 | 0.00 | 0.00 | 0.00 | 21 | 1010.9 | |
| 20260507173055 | 80 | 0.0 | 0.0 | 0.00 | 0.00 | 0.00 | 22 | 1011.3 | |
| 20260507171554 | 78 | 0.0 | 0.0 | 0.00 | 0.00 | 0.00 | 22 | 1011.4 | |
| 20260507170045 | 78 | 0.0 | 0.0 | 0.00 | 0.00 | 0.00 | 22 | 1011.6 | |
| 20260507164542 | 77 | 0.0 | 0.0 | 0.00 | 0.00 | 0.00 | 25 | 1011.7 | |
| 20260507163039 | 75 | 0.0 | 0.0 | 0.00 | 0.00 | 0.00 | 26 | 1011.8 | |
| 20260507161534 | 74 | 0.0 | 0.0 | 0.00 | 0.00 | 0.00 | 28 | 1012.0 | |
| 20260507160035 | 73 | 0.0 | 0.0 | 0.00 | 0.00 | 0.00 | 28 | 1012.2 | |
| 20260507154530 | 72 | 0.0 | 0.0 | 0.00 | 0.00 | 0.00 | 32 | 1012.3 | |
| 20260507153031 | 70 | 0.0 | 0.0 | 0.00 | 0.00 | 0.00 | 36 | 1012.3 | |
| 20260507151522 | 68 | 0.0 | 0.0 | 0.00 | 0.00 | 0.00 | 39 | 1012.5 | |
| 20260507150017 | 66 | 0.0 | 0.0 | 0.00 | 0.00 | 0.00 | 40 | 1012.6 |